Point Salines, Grenada

6:18 PM AST on August 20, 2017 (GMT -0400)
Point Salines International

Weather History for TGPY - March, 2014

Change the Weather History Date:

Tuesday, March 18, 2014

  Actual Average Record
Temperature  
Mean Temperature 80 °F -  
Max Temperature 85 °F 84 °F 88 °F (2015)
Min Temperature 75 °F 75 °F 72 °F (2017)
Cooling Degree Days 15    
Growing Degree Days 30 (Base 50)    
Moisture  
Dew Point 73 °F    
Average Humidity 78    
Maximum Humidity 94    
Minimum Humidity 64    
Precipitation  
Precipitation 0.02 in - - ()
Sea Level Pressure  
Sea Level Pressure 29.94 in    
Wind  
Wind Speed 14 mph ()    
Max Wind Speed 23 mph    
Max Gust Speed -    
Visibility 7.0 miles    
Events      
Averages and records for this station are not official NWS values.
T = Trace of Precipitation, MM = Missing Value Source: Averaged Metar Reports

Daily Weather History Graph

Daily Weather History Graph

Search for Another Location

Airport or City:

Trip Planner

Search our weather history database for the weather conditions in past years. The results will help you decide how hot, cold, wet, or windy it might be!

Date:

Astronomy

Mar. 18, 2014 Rise Set
Actual Time 6:12 AM AST 6:17 PM AST
Civil Twilight 5:51 AM AST 6:38 PM AST
Nautical Twilight 5:26 AM AST 7:03 PM AST
Astronomical Twilight 5:02 AM AST 7:28 PM AST
Moon 8:02 PM AST (3/18) 7:21 AM AST (3/18)
Length of Visible Light 12h 47m
Length of Day
12h 05m
Waning Gibbous, 96% of the Moon is Illuminated
Mar 18
Waning Gibbous
Mar 23
Last Quarter
Mar 30
New
Apr 7
First Quarter
Apr 15
Full

Hourly Weather History & Observations

Time (AST) Temp. Heat Index Dew Point Humidity Pressure Visibility Wind Dir Wind Speed Gust Speed Precip Events Conditions
12:00 AM 78.8 °F - 71.6 °F 78% 29.89 in 6.2 mi East 12.7 mph - N/A   Partly Cloudy
1:00 AM 77.0 °F - 71.6 °F 83% 29.92 in 6.2 mi East 12.7 mph - N/A   Partly Cloudy
2:00 AM 77 °F - 72 °F 81% 29.91 in 11 mi East 12.7 mph - -   Widespread Dust
2:00 AM 77.0 °F - 71.6 °F 83% 29.89 in 6.2 mi East 12.7 mph - N/A   Partly Cloudy
3:00 AM 78.8 °F - 73.4 °F 83% 29.89 in 6.2 mi East 13.8 mph - N/A   Mostly Cloudy
4:00 AM 78.8 °F - 71.6 °F 78% 29.89 in 6.2 mi East 11.5 mph - N/A   Partly Cloudy
5:00 AM 78 °F - 72 °F 78% 29.92 in 7 mi East 12.7 mph - -   Mostly Cloudy
5:00 AM 78.8 °F - 73.4 °F 83% 29.92 in 6.2 mi East 12.7 mph - N/A   Scattered Clouds
6:00 AM 78.8 °F - 73.4 °F 83% 29.95 in 6.2 mi East 13.8 mph - N/A   Mostly Cloudy
7:00 AM 78.8 °F - 71.6 °F 78% 29.95 in 6.2 mi East 16.1 mph - N/A   Partly Cloudy
8:00 AM 80 °F - 74 °F 77% 29.98 in 11 mi East 20.7 mph - -   Widespread Dust
8:00 AM 80.6 °F 85.4 °F 73.4 °F 79% 29.98 in 6.2 mi East 20.7 mph - N/A   Scattered Clouds
9:00 AM 82.4 °F 88.2 °F 73.4 °F 74% 30.01 in 6.2 mi ESE 20.7 mph - N/A   Scattered Clouds
10:00 AM 84.2 °F 90.9 °F 73.4 °F 70% 30.01 in 6.2 mi SE 20.7 mph - N/A   Scattered Clouds
11:00 AM 84 °F - 74 °F 64% 30.01 in 11 mi ESE 18.4 mph - -   Widespread Dust
11:00 AM 84.2 °F 90.9 °F 73.4 °F 70% 30.01 in 6.2 mi ESE 18.4 mph - N/A   Scattered Clouds
12:00 PM 84.2 °F 92.3 °F 75.2 °F 74% 29.98 in 6.2 mi East 20.7 mph - N/A   Mostly Cloudy
1:00 PM 84.2 °F 90.9 °F 73.4 °F 70% 29.95 in 6.2 mi SE 20.7 mph - N/A   Scattered Clouds
2:00 PM 83 °F - 74 °F 69% 29.94 in 11 mi ESE 23.0 mph - -   Widespread Dust
2:00 PM 84.2 °F 92.3 °F 75.2 °F 74% 29.92 in 6.2 mi ESE 23.0 mph - N/A   Partly Cloudy
3:00 PM 84.2 °F 90.9 °F 73.4 °F 70% 29.89 in 6.2 mi East 23.0 mph - N/A   Scattered Clouds
4:00 PM 82.4 °F 88.2 °F 73.4 °F 74% 29.89 in 6.2 mi ESE 16.1 mph - N/A   Scattered Clouds
5:00 PM 82 °F - 73 °F 67% 29.91 in 9 mi ESE 16.1 mph - -   Widespread Dust
5:00 PM 82.4 °F 88.2 °F 73.4 °F 74% 29.89 in 6.2 mi ESE 16.1 mph - N/A   Scattered Clouds
6:00 PM 80.6 °F 85.4 °F 73.4 °F 79% 29.92 in 6.2 mi ESE 17.3 mph - N/A   Scattered Clouds
7:00 PM 78.8 °F - 73.4 °F 83% 29.92 in 6.2 mi East 20.7 mph - N/A   Partly Cloudy
8:00 PM 79 °F - 74 °F 79% 29.95 in 7 mi East 17.3 mph - -   Widespread Dust
8:00 PM 78.8 °F - 73.4 °F 83% 29.95 in 6.2 mi East 17.3 mph - N/A   Partly Cloudy
9:00 PM 78.8 °F - 73.4 °F 83% 29.95 in 6.2 mi East 19.6 mph - N/A   Partly Cloudy
10:00 PM 78.8 °F - 73.4 °F 83% 29.98 in 6.2 mi East 18.4 mph - N/A   Partly Cloudy
11:00 PM 78 °F - 74 °F 85% 29.98 in 9 mi East 17.3 mph - -   Widespread Dust
11:00 PM 77.0 °F - 75.2 °F 94% 29.98 in 6.2 mi East 17.3 mph - N/A   Partly Cloudy